Погода в Шанлыурфе

Турция     37°09′32″N   38°47′31″E
темп.,
°C
ветер,
м/с
пор.,
м/с
влажн.,
%
обл.,
%
осадки,
мм/ч
давл.,
гПа
погр.,
м
14 мая, пт
пт1400:00+21зсз47270 0.0 101186
03:00+19сз33310 0.0 101119
06:00+19сз32340 0.0 101216
09:00+26зсз22170 0.0 1012453
12:00+31зюз35130 0.0 10112266
15:00+32юз66131 0.0 10103089
18:00+30зюз67120 0.0 10091388
21:00+24з451986 0.0 101055
15 мая, сб
сб1500:00+21зсз45325 0.0 101062
03:00+19сз22410 0.0 101011
06:00+18ссз11440 0.0 101011
09:00+26зюз11220 0.0 1010471
12:00+30ю11120 0.0 10091862
15:00+32ю3390 0.0 10062849
18:00+31юз55110 0.0 1006997
21:00+24зюз612250 0.0 1007192
16 мая, вс
вс1600:00+22з23370 0.0 100616
03:00+19ссз015163 0.0 100611
06:00+19вюв114793 0.0 100711
09:00+24ю3333100 0.0 1007521
12:00+29ююз68172 0.0 10071326
15:00+31ююз89110 0.0 10052615
18:00+28юз8916100 0.0 10051539
21:00+22зюз51032100 0.0 1007185
17 мая, пн
пн1700:00+20сз3335100 0.0 100618
03:00+18сз2244100 0.0 100622
06:00+19зсз2342100 0.0 100748
09:00+23зюз2326100 0.0 1007599
12:00+28зюз56165 0.0 10062311
15:00+29юз78150 0.0 10052939
18:00+27юз88190 0.0 10052289
21:00+21з510340 0.0 1007214
18 мая, вт
вт1800:00+19зсз49520 0.0 1007172
03:00+19зсз48420 0.0 1008124
06:00+18зсз510420 0.0 1009159
09:00+24ссз88260 0.0 10091092
12:00+29ссз89150 0.0 10092474
15:00+30ссз810130 0.0 10082887
18:00+29ссз78140 0.0 10081878
21:00+23ссз33210 0.0 100915